Location: Arclight Observatory
(36.5667°N, 87.3333°W)
Time: 11:47:45
(UTC-05:00)

Hubble Space Telescope - Visible Passes

Search period start: 23 May 2017 00:00
Search period end: 02 June 2017 00:00
Orbit: 538 x 541 km, 28.5° (Epoch: 22 May)

Date Brightness Start Highest point End Pass type
(mag) Time Alt. Az. Time Alt. Az. Time Alt. Az.
23 May 3.4 03:23:17 10° SE 03:23:17 10° SE 03:23:17 10° SE visible
23 May 2.8 04:59:11 10° SW 05:00:34 11° SSW 05:01:58 10° S visible
27 May 2.8 21:24:46 10° SSW 21:25:49 13° S 21:25:49 13° S visible
28 May 2.4 21:14:14 10° SSW 21:17:01 18° SSE 21:17:02 18° SSE visible
29 May 2.2 21:03:49 10° SW 21:06:52 20° SSE 21:08:03 18° SE visible
30 May 2.1 20:53:29 10° SW 20:56:43 22° S 20:58:52 15° SE visible
30 May 3.3 22:33:59 10° WSW 22:34:15 11° WSW 22:34:15 11° WSW visible
31 May 2.1 20:43:14 10° SW 20:46:34 24° S 20:49:32 12° ESE visible
31 May 3.0 22:23:54 10° WSW 22:24:55 15° SW 22:24:55 15° SW visible
01 Jun 2.0 20:33:00 10° SW 20:36:26 25° S 20:39:52 10° ESE visible
01 Jun 2.7 22:13:51 10° WSW 22:15:28 18° SW 22:15:28 18° SW visible
